• en Belgique
  • Liste des pays
  • À 7 jours
  • Température de l'eau
  • Carte satellitaire
  • Carte météo
  • Widgets météo
  • user-avatar
    Se connecter

    Météo par heure à Polevaya

    Ce jour, 21 Septembre, Vendredi

    Heure Température Précipitation Vent Pression Humidité
    00:00 +14°C° 0 mm 2 m/s 750 mmHg 93%
    01:00 +14°C° 0 mm 2 m/s 750 mmHg 94%
    02:00 +14°C° 0 mm 2 m/s 750 mmHg 94%
    03:00 +14°C° 0 mm 2 m/s 750 mmHg 94%
    04:00 +13°C° 0 mm 2 m/s 750 mmHg 95%
    05:00 +13°C° 0 mm 2 m/s 751 mmHg 95%
    06:00 +15°C° 0 mm 2 m/s 751 mmHg 89%
    07:00 +16°C° 0 mm 2 m/s 751 mmHg 84%
    08:00 +18°C° 0 mm 2 m/s 751 mmHg 78%
    09:00 +19°C° 0 mm 2 m/s 751 mmHg 72%
    10:00 +21°C° 0 mm 3 m/s 752 mmHg 66%
    11:00 +24°C° 0 mm 3 m/s 752 mmHg 60%
    12:00 +24°C° 0 mm 3 m/s 752 mmHg 59%
    13:00 +25°C° 0 mm 3 m/s 752 mmHg 58%
    14:00 +26°C° 0 mm 3 m/s 751 mmHg 57%
    15:00 +24°C° 0 mm 2 m/s 751 mmHg 62%
    16:00 +23°C° 0 mm 2 m/s 751 mmHg 68%
    17:00 +21°C° 0 mm 2 m/s 751 mmHg 74%
    18:00 +20°C° 0 mm 2 m/s 751 mmHg 78%
    19:00 +19°C° 0 mm 2 m/s 751 mmHg 82%
    20:00 +18°C° 0 mm 2 m/s 751 mmHg 85%
    21:00 +17°C° 0 mm 2 m/s 751 mmHg 86%
    22:00 +17°C° 0 mm 2 m/s 751 mmHg 87%
    23:00 +16°C° 0 mm 2 m/s 751 mmHg 88%

    Demain, 22 Septembre, Samedi

    Heure Température Précipitation Vent Pression Humidité
    00:00 +16°C° 0 mm 2 m/s 751 mmHg 88%
    01:00 +15°C° 0 mm 2 m/s 751 mmHg 88%
    02:00 +15°C° 0 mm 2 m/s 751 mmHg 88%
    03:00 +14°C° 0 mm 3 m/s 751 mmHg 89%
    04:00 +14°C° 0 mm 3 m/s 750 mmHg 90%
    05:00 +14°C° 0 mm 3 m/s 750 mmHg 91%
    06:00 +16°C° 0 mm 3 m/s 750 mmHg 87%
    07:00 +18°C° 0 mm 4 m/s 750 mmHg 82%
    08:00 +19°C° 0 mm 4 m/s 750 mmHg 77%
    09:00 +21°C° 0 mm 5 m/s 749 mmHg 69%
    10:00 +23°C° 0 mm 5 m/s 749 mmHg 61%
    11:00 +26°C° 0 mm 6 m/s 748 mmHg 53%
    12:00 +26°C° 0 mm 6 m/s 748 mmHg 52%
    13:00 +26°C° 0 mm 6 m/s 747 mmHg 51%
    14:00 +26°C° 0 mm 6 m/s 747 mmHg 49%
    15:00 +25°C° 0.1 mm 5 m/s 746 mmHg 55%
    16:00 +23°C° 0.1 mm 4 m/s 746 mmHg 61%
    17:00 +21°C° 0.1 mm 4 m/s 746 mmHg 66%
    18:00 +21°C° 0 mm 4 m/s 745 mmHg 68%
    19:00 +20°C° 0 mm 4 m/s 745 mmHg 71%
    20:00 +19°C° 0 mm 4 m/s 745 mmHg 73%
    21:00 +19°C° 0.2 mm 4 m/s 745 mmHg 75%
    22:00 +18°C° 0.2 mm 4 m/s 745 mmHg 77%
    23:00 +18°C° 0.2 mm 4 m/s 744 mmHg 79%

    Après-demain, 23 Septembre, Dimanche

    Heure Température Précipitation Vent Pression Humidité
    00:00 +17°C° 0.4 mm 4 m/s 744 mmHg 82%
    01:00 +16°C° 0.4 mm 3 m/s 744 mmHg 85%
    02:00 +14°C° 0.4 mm 3 m/s 744 mmHg 89%
    03:00 +14°C° 0.2 mm 3 m/s 744 mmHg 89%
    04:00 +13°C° 0.2 mm 3 m/s 744 mmHg 90%
    05:00 +13°C° 0.2 mm 2 m/s 744 mmHg 91%
    06:00 +13°C° 0.5 mm 2 m/s 743 mmHg 91%
    07:00 +11°C° 0.5 mm 3 m/s 743 mmHg 90%
    08:00 +11°C° 0.5 mm 3 m/s 743 mmHg 90%
    09:00 +11°C° 0.9 mm 3 m/s 743 mmHg 90%
    10:00 +10°C° 0.9 mm 3 m/s 743 mmHg 90%
    11:00 +10°C° 0.9 mm 3 m/s 742 mmHg 91%
    12:00 +10°C° 2.1 mm 3 m/s 742 mmHg 92%
    13:00 +8°C° 2.1 mm 4 m/s 742 mmHg 92%
    14:00 +8°C° 2.1 mm 4 m/s 742 mmHg 93%
    15:00 +9°C° 1.4 mm 3 m/s 742 mmHg 93%
    16:00 +9°C° 1.4 mm 3 m/s 742 mmHg 93%
    17:00 +9°C° 1.4 mm 3 m/s 742 mmHg 93%
    18:00 +9°C° 0.2 mm 2 m/s 743 mmHg 94%
    19:00 +9°C° 0.2 mm 2 m/s 743 mmHg 95%
    20:00 +9°C° 0.2 mm 2 m/s 743 mmHg 96%
    21:00 +8°C° 0 mm 2 m/s 743 mmHg 96%
    22:00 +8°C° 0 mm 2 m/s 743 mmHg 96%
    23:00 +8°C° 0 mm 2 m/s 744 mmHg 96%

    24 Septembre, Lundi

    Heure Température Précipitation Vent Pression Humidité
    00:00 +8°C° 0 mm 2 m/s 744 mmHg 96%
    01:00 +7°C° 0 mm 2 m/s 744 mmHg 96%
    02:00 +7°C° 0 mm 2 m/s 744 mmHg 96%
    03:00 +7°C° 0 mm 2 m/s 744 mmHg 96%
    04:00 +5°C° 0 mm 3 m/s 744 mmHg 97%
    05:00 +5°C° 0 mm 3 m/s 744 mmHg 97%
    06:00 +7°C° 0 mm 3 m/s 744 mmHg 95%
    07:00 +7°C° 0 mm 3 m/s 744 mmHg 92%
    08:00 +7°C° 0 mm 4 m/s 744 mmHg 90%
    09:00 +9°C° 0 mm 3 m/s 744 mmHg 88%
    10:00 +9°C° 0 mm 3 m/s 745 mmHg 85%
    11:00 +9°C° 0 mm 3 m/s 745 mmHg 83%
    12:00 +10°C° 0 mm 3 m/s 745 mmHg 79%
    13:00 +12°C° 0 mm 2 m/s 745 mmHg 75%
    14:00 +12°C° 0 mm 2 m/s 745 mmHg 71%
    15:00 +12°C° 0 mm 2 m/s 745 mmHg 74%
    16:00 +10°C° 0 mm 2 m/s 745 mmHg 77%
    17:00 +10°C° 0 mm 2 m/s 745 mmHg 80%
    18:00 +9°C° 0.1 mm 2 m/s 744 mmHg 82%
    19:00 +9°C° 0.1 mm 3 m/s 744 mmHg 84%
    20:00 +9°C° 0.1 mm 3 m/s 743 mmHg 85%
    21:00 +9°C° 0.5 mm 3 m/s 743 mmHg 87%
    22:00 +9°C° 0.5 mm 3 m/s 742 mmHg 89%
    23:00 +8°C° 0.5 mm 4 m/s 742 mmHg 90%

    25 Septembre, Mardi

    Heure Température Précipitation Vent Pression Humidité
    00:00 +8°C° 0.9 mm 4 m/s 741 mmHg 90%
    01:00 +8°C° 0.9 mm 5 m/s 740 mmHg 90%
    02:00 +8°C° 0.9 mm 6 m/s 739 mmHg 90%
    03:00 +8°C° 2 mm 6 m/s 738 mmHg 90%
    04:00 +8°C° 2 mm 6 m/s 737 mmHg 90%
    05:00 +8°C° 2 mm 7 m/s 736 mmHg 91%
    06:00 +8°C° 1.2 mm 7 m/s 735 mmHg 90%
    07:00 +8°C° 1.2 mm 6 m/s 735 mmHg 90%
    08:00 +8°C° 1.2 mm 6 m/s 734 mmHg 90%
    09:00 +9°C° 0.3 mm 6 m/s 734 mmHg 89%
    10:00 +9°C° 0.3 mm 6 m/s 733 mmHg 88%
    11:00 +10°C° 0.3 mm 5 m/s 733 mmHg 87%
    12:00 +10°C° 0.4 mm 5 m/s 733 mmHg 85%
    13:00 +11°C° 0.4 mm 4 m/s 733 mmHg 84%
    14:00 +11°C° 0.4 mm 4 m/s 733 mmHg 83%
    15:00 +10°C° 0.4 mm 3 m/s 733 mmHg 85%
    16:00 +10°C° 0.4 mm 3 m/s 733 mmHg 88%
    17:00 +9°C° 0.4 mm 2 m/s 733 mmHg 90%
    18:00 +9°C° 0.3 mm 2 m/s 733 mmHg 91%
    19:00 +9°C° 0.3 mm 2 m/s 733 mmHg 93%
    20:00 +8°C° 0.3 mm 2 m/s 733 mmHg 94%
    21:00 +8°C° 0.6 mm 2 m/s 733 mmHg 94%
    22:00 +8°C° 0.6 mm 2 m/s 733 mmHg 95%
    23:00 +8°C° 0.6 mm 2 m/s 733 mmHg 95%

    26 Septembre, Mercredi

    Heure Température Précipitation Vent Pression Humidité
    00:00 +8°C° 0.5 mm 2 m/s 733 mmHg 95%
    01:00 +8°C° 0.5 mm 2 m/s 733 mmHg 96%
    02:00 +8°C° 0.5 mm 2 m/s 733 mmHg 96%
    03:00 +8°C° 0.4 mm 2 m/s 734 mmHg 96%
    04:00 +8°C° 0.4 mm 2 m/s 734 mmHg 96%
    05:00 +8°C° 0.4 mm 2 m/s 734 mmHg 96%
    06:00 +8°C° 0.3 mm 2 m/s 734 mmHg 95%
    07:00 +8°C° 0.3 mm 2 m/s 735 mmHg 94%
    08:00 +8°C° 0.3 mm 3 m/s 735 mmHg 93%
    09:00 +8°C° 0.3 mm 3 m/s 736 mmHg 91%
    10:00 +9°C° 0.3 mm 3 m/s 737 mmHg 90%
    11:00 +8°C° 0.3 mm 4 m/s 738 mmHg 89%
    12:00 +8°C° 0.2 mm 4 m/s 739 mmHg 88%
    13:00 +8°C° 0.2 mm 4 m/s 740 mmHg 87%
    14:00 +8°C° 0.2 mm 5 m/s 740 mmHg 87%
    15:00 +8°C° 0.1 mm 4 m/s 741 mmHg 88%
    16:00 +8°C° 0.1 mm 4 m/s 742 mmHg 89%
    17:00 +7°C° 0.1 mm 4 m/s 743 mmHg 90%
    18:00 +7°C° 0.2 mm 4 m/s 744 mmHg 90%
    19:00 +7°C° 0.2 mm 5 m/s 745 mmHg 90%
    20:00 +7°C° 0.2 mm 5 m/s 746 mmHg 90%
    21:00 +7°C° 0.1 mm 5 m/s 746 mmHg 89%
    22:00 +6°C° 0.1 mm 5 m/s 747 mmHg 89%
    23:00 +6°C° 0.1 mm 4 m/s 748 mmHg 89%
    Voir plus